Regional Weather Roundup
Issued by NWS State College, PA

Current Version | Previous Version | Text Only | Print | Product List | Glossary On
Versions: 1 2 3 4 5 6 7 8 9 10 11 12 13 14 15 16 17 18 19 20 21 22 23 24 25 26 27 28 29 30 31 32 33 34 35 36 37 38 39 40 41 42 43 44 45 46 47 48 49 50
000
ASUS41 KCTP 192110
RWRCTP

REGIONAL WEATHER ROUNDUP
NATIONAL WEATHER SERVICE STATE COLLEGE PA
500 PM EDT SUN AUG 19 2018

Note: "fair" indicates few or no clouds below 12,000 feet with no
significant weather and/or obstructions to visibility.

* = STATION THAT DOES NOT REPORT PRECIPITATION /E.G. RAIN...SNOW...ETC/
    THUNDER OR FOG.

PAZ002>004-007>009-013>016-020>023-029>032-192200-
WESTERN PENNSYLVANIA

CITY           SKY/WX    TMP DP  RH WIND       PRES   REMARKS
ERIE           FAIR      76  62  62 N10       30.02S
MEADVILLE      FAIR      74  60  61 N3        30.04S
FRANKLIN*      PTSUNNY   73  60  63 NE5       30.05S
NEW CASTLE     FAIR      76  61  59 N6        30.03S
BEAVER COUNTY  NOT AVBL
BUTLER*        PTSUNNY   76  61  59 N5        30.02S
PITTSBURGH INT FAIR      76  59  55 NE5       30.00F
PITTSBURGH     FAIR      76  62  62 VRB3      30.00S
INDIANA*       SUNNY     77  61  57 CALM      30.05S
LATROBE        MOSUNNY   77  64  65 N9        30.01S
WASHINGTON CO* FAIR      77  62  59 N9        30.03S
$$

PAZ004>006-010>012-017>019-024>028-033>037-041-042-045-046-049>053-192200-
CENTRAL PENNSYLVANIA

CITY           SKY/WX    TMP DP  RH WIND       PRES   REMARKS
BRADFORD       CLOUDY    72  60  66 NE5       30.07S
DUBOIS         CLOUDY    72  63  73 SE3       30.04R
CLEARFIELD     CLOUDY    74  64  71 E3        30.04S
JOHNSTOWN      PTSUNNY   72  61  68 E7        30.04S
ALTOONA        CLOUDY    75  64  68 VRB6      30.03F
STATE COLLEGE  PTSUNNY   70  63  78 CALM      30.01F FOG
WILLIAMSPORT   CLOUDY    75  64  68 S5        29.99S
SELINSGROVE    CLOUDY    74  66  76 CALM      30.01S
FT INDIANTOWN  CLOUDY    71  67  87 E5        30.01S
CAPITAL CITY   LGT RAIN  73  68  84 E6        30.00S
HARRISBURG     LGT RAIN  71  68  90 NE6       29.99S FOG
YORK           LGT RAIN  70  69  97 NE6       30.00S FOG
$$

PAZ038>040-043-044-047-048-054-055-060>062-067>071-192200-
EASTERN PENNSYLVANIA

CITY           SKY/WX    TMP DP  RH WIND       PRES   REMARKS
SCRANTON       CLOUDY    73  61  65 NE5       30.03R
MOUNT POCONO   CLOUDY    67  61  81 NE5       30.07R
ALLENTOWN      CLOUDY    72  63  73 E7        30.02R
QUAKERTOWN*    CLOUDY    70  66  88 NE5       30.03R
READING        CLOUDY    71  68  90 E6        30.00R
LANCASTER      CLOUDY    70  69  97 E8        30.01R
COATESVILLE    LGT RAIN  68  66  94 CALM      30.03R VSB 1
POTTSTOWN      LGT RAIN  69  65  86 NE7       30.03R
BLUE BELL      CLOUDY    66  66 100 NE6       30.02R
DOYLESTOWN     CLOUDY    69  64  84 VRB3      30.01S
WILLOW GROVE   NOT AVBL
NORTH PHILA    CLOUDY    73  65  75 E10       30.01S
PHILADELPHIA   CLOUDY    70  66  87 NE12      29.99S
$$



USA.gov is the U.S. government's official web portal to all federal, state and local government web resources and services.